******** Week 358 almanac for PRN-1 ******** ID: 1 Health: 0 Eccentricity: 0.001516342163 Time of Applicability(s): 61440 Orbital Inclination(rad): 0.9584347915 Rate of Right Ascen(r/s): -7.806039438e-09 SQRT(A) (m 1/2): 5153.58252 Right Ascen at Week(rad): -2.894442734 Argument of Perigee(rad): 0.048861932 Mean Anom(rad): 0.1982812482 Af0(s): 0.0002622786621 Af1(s/s): -3.637979e-12 week: 358 ******** Week 358 almanac for PRN-2 ******** ID: 2 Health: 0 Eccentricity: 0.01694774628 Time of Applicability(s): 61440 Orbital Inclination(rad): 0.9638037243 Rate of Right Ascen(r/s): -7.634603726e-09 SQRT(A) (m 1/2): 5153.557617 Right Ascen at Week(rad): -3.05695931 Argument of Perigee(rad): -0.823856665 Mean Anom(rad): 1.632912063 Af0(s): 3.090064697e-05 Af1(s/s): 7.275958e-12 week: 358 ******** Week 358 almanac for PRN-3 ******** ID: 3 Health: 0 Eccentricity: 0.006430149078 Time of Applicability(s): 61440 Orbital Inclination(rad): 0.9928774539 Rate of Right Ascen(r/s): -7.977475151e-09 SQRT(A) (m 1/2): 5153.586426 Right Ascen at Week(rad): -1.907905084 Argument of Perigee(rad): 1.204993591 Mean Anom(rad): -1.971688874 Af0(s): 0.0004491898926 Af1(s/s): -1.091394e-11 week: 358 ******** Week 358 almanac for PRN-4 ******** ID: 4 Health: 0 Eccentricity: 0.003739833832 Time of Applicability(s): 61440 Orbital Inclination(rad): 0.9705388587 Rate of Right Ascen(r/s): -7.863184676e-09 SQRT(A) (m 1/2): 5153.695312 Right Ascen at Week(rad): -0.8367206069 Argument of Perigee(rad): -2.887856278 Mean Anom(rad): 1.033574983 Af0(s): 3.466901855e-05 Af1(s/s): 3.637979e-12 week: 358 ******** Week 358 almanac for PRN-5 ******** ID: 5 Health: 0 Eccentricity: 0.005382061005 Time of Applicability(s): 61440 Orbital Inclination(rad): 0.9794671062 Rate of Right Ascen(r/s): -8.091765626e-09 SQRT(A) (m 1/2): 5153.645508 Right Ascen at Week(rad): -1.967473423 Argument of Perigee(rad): 1.420175593 Mean Anom(rad): 1.68168711 Af0(s): -0.0001808818359 Af1(s/s): 0 week: 358 ******** Week 358 almanac for PRN-6 ******** ID: 6 Health: 0 Eccentricity: 0.003872871399 Time of Applicability(s): 61440 Orbital Inclination(rad): 0.9873527262 Rate of Right Ascen(r/s): -7.474597061e-09 SQRT(A) (m 1/2): 5153.588379 Right Ascen at Week(rad): -2.944323325 Argument of Perigee(rad): -0.5860424549 Mean Anom(rad): -0.6291085161 Af0(s): -0.0004823515625 Af1(s/s): -3.637979e-12 week: 358 ******** Week 358 almanac for PRN-7 ******** ID: 7 Health: 0 Eccentricity: 0.02037477493 Time of Applicability(s): 61440 Orbital Inclination(rad): 0.9513341383 Rate of Right Ascen(r/s): -7.668890868e-09 SQRT(A) (m 1/2): 5153.583008 Right Ascen at Week(rad): 0.1717410586 Argument of Perigee(rad): -1.996941883 Mean Anom(rad): -1.510134053 Af0(s): -0.0001183268677 Af1(s/s): -3.637979e-12 week: 358 ******** Week 358 almanac for PRN-8 ******** ID: 8 Health: 0 Eccentricity: 0.01154088974 Time of Applicability(s): 61440 Orbital Inclination(rad): 0.943592329 Rate of Right Ascen(r/s): -7.977475151e-09 SQRT(A) (m 1/2): 5153.621582 Right Ascen at Week(rad): 2.219655595 Argument of Perigee(rad): 0.5162871503 Mean Anom(rad): 1.326067594 Af0(s): 0.0003881422729 Af1(s/s): -3.637979e-12 week: 358 ******** Week 358 almanac for PRN-9 ******** ID: 9 Health: 0 Eccentricity: 0.003381729126 Time of Applicability(s): 61440 Orbital Inclination(rad): 0.96464262 Rate of Right Ascen(r/s): -7.977475151e-09 SQRT(A) (m 1/2): 5153.740723 Right Ascen at Week(rad): -0.9008631747 Argument of Perigee(rad): 2.074749089 Mean Anom(rad): 1.917229935 Af0(s): 0.0006082151733 Af1(s/s): 0 week: 358 ******** Week 358 almanac for PRN-10 ******** ID: 10 Health: 0 Eccentricity: 0.01095342636 Time of Applicability(s): 61440 Orbital Inclination(rad): 0.9924160613 Rate of Right Ascen(r/s): -7.977475151e-09 SQRT(A) (m 1/2): 5153.601074 Right Ascen at Week(rad): -1.910415405 Argument of Perigee(rad): -2.2579407 Mean Anom(rad): -2.95499303 Af0(s): -0.0004650170532 Af1(s/s): 0 week: 358 ******** Week 358 almanac for PRN-11 ******** ID: 11 Health: 0 Eccentricity: 0.002217292786 Time of Applicability(s): 61440 Orbital Inclination(rad): 0.9642051958 Rate of Right Ascen(r/s): -7.726036106e-09 SQRT(A) (m 1/2): 5153.523438 Right Ascen at Week(rad): -2.925202868 Argument of Perigee(rad): -2.292793073 Mean Anom(rad): 0.418441197 Af0(s): -0.0003459365112 Af1(s/s): 1.455192e-11 week: 358 ******** Week 358 almanac for PRN-12 ******** ID: 12 Health: 0 Eccentricity: 0.009059429169 Time of Applicability(s): 61440 Orbital Inclination(rad): 0.9588063025 Rate of Right Ascen(r/s): -8.011762293e-09 SQRT(A) (m 1/2): 5153.718262 Right Ascen at Week(rad): 1.289443428 Argument of Perigee(rad): 1.554838583 Mean Anom(rad): -2.152112504 Af0(s): -0.0004800905395 Af1(s/s): 0 week: 358 ******** Week 358 almanac for PRN-13 ******** ID: 13 Health: 0 Eccentricity: 0.009956359863 Time of Applicability(s): 61440 Orbital Inclination(rad): 0.976255334 Rate of Right Ascen(r/s): -7.748894201e-09 SQRT(A) (m 1/2): 5153.630859 Right Ascen at Week(rad): -0.7259638983 Argument of Perigee(rad): 0.9985810466 Mean Anom(rad): 1.068642698 Af0(s): 0.0005426455078 Af1(s/s): 0 week: 358 ******** Week 358 almanac for PRN-14 ******** ID: 14 Health: 0 Eccentricity: 0.006638526916 Time of Applicability(s): 61440 Orbital Inclination(rad): 0.9421721983 Rate of Right Ascen(r/s): -8.217485148e-09 SQRT(A) (m 1/2): 5153.583008 Right Ascen at Week(rad): 1.235021939 Argument of Perigee(rad): -2.757020376 Mean Anom(rad): -2.323616125 Af0(s): 0.0005810828979 Af1(s/s): 3.637979e-12 week: 358 ******** Week 358 almanac for PRN-15 ******** ID: 15 Health: 0 Eccentricity: 0.0166015625 Time of Applicability(s): 61440 Orbital Inclination(rad): 0.9424118828 Rate of Right Ascen(r/s): -8.274630386e-09 SQRT(A) (m 1/2): 5153.635742 Right Ascen at Week(rad): -1.044555529 Argument of Perigee(rad): 1.499142647 Mean Anom(rad): 0.3247915949 Af0(s): 0.0003052380981 Af1(s/s): 3.637979e-12 week: 358 ******** Week 358 almanac for PRN-16 ******** ID: 16 Health: 0 Eccentricity: 0.01506185532 Time of Applicability(s): 61440 Orbital Inclination(rad): 0.9579374462 Rate of Right Ascen(r/s): -8.046049436e-09 SQRT(A) (m 1/2): 5153.575684 Right Ascen at Week(rad): 1.306453163 Argument of Perigee(rad): 0.9279261761 Mean Anom(rad): 2.342701752 Af0(s): 0.0001650546753 Af1(s/s): 7.275958e-12 week: 358 ******** Week 358 almanac for PRN-17 ******** ID: 17 Health: 0 Eccentricity: 0.01271009445 Time of Applicability(s): 61440 Orbital Inclination(rad): 0.959363569 Rate of Right Ascen(r/s): -7.840326581e-09 SQRT(A) (m 1/2): 5153.529297 Right Ascen at Week(rad): 2.324116466 Argument of Perigee(rad): -1.125391373 Mean Anom(rad): 1.240885596 Af0(s): -4.974250488e-05 Af1(s/s): -1.091394e-11 week: 358 ******** Week 358 almanac for PRN-18 ******** ID: 18 Health: 0 Eccentricity: 0.005721092224 Time of Applicability(s): 61440 Orbital Inclination(rad): 0.972312524 Rate of Right Ascen(r/s): -7.623174678e-09 SQRT(A) (m 1/2): 5153.599609 Right Ascen at Week(rad): -2.949140234 Argument of Perigee(rad): -2.861706325 Mean Anom(rad): -0.7429788761 Af0(s): -0.0003353850708 Af1(s/s): 1.091394e-11 week: 358 ******** Week 358 almanac for PRN-19 ******** ID: 19 Health: 0 Eccentricity: 0.01106548309 Time of Applicability(s): 61440 Orbital Inclination(rad): 0.9585786022 Rate of Right Ascen(r/s): -7.817468486e-09 SQRT(A) (m 1/2): 5153.662598 Right Ascen at Week(rad): 2.368015057 Argument of Perigee(rad): 2.926038019 Mean Anom(rad): 3.073317028 Af0(s): 0.0005456602051 Af1(s/s): 0 week: 358 ******** Week 358 almanac for PRN-20 ******** ID: 20 Health: 255 Eccentricity: 0.0003018379211 Time of Applicability(s): 61440 Orbital Inclination(rad): 0.9600706382 Rate of Right Ascen(r/s): -8.011762293e-09 SQRT(A) (m 1/2): 5153.645508 Right Ascen at Week(rad): -0.8951777835 Argument of Perigee(rad): 1.41073502 Mean Anom(rad): 0.6804047438 Af0(s): 0 Af1(s/s): 0 week: 358 ******** Week 358 almanac for PRN-21 ******** ID: 21 Health: 0 Eccentricity: 0.0006785392761 Time of Applicability(s): 61440 Orbital Inclination(rad): 0.9622997041 Rate of Right Ascen(r/s): -8.286059433e-09 SQRT(A) (m 1/2): 5153.701172 Right Ascen at Week(rad): -1.90119654 Argument of Perigee(rad): -0.38943001 Mean Anom(rad): -2.389615498 Af0(s): 0.0003150358643 Af1(s/s): 3.637979e-12 week: 358 ******** Week 358 almanac for PRN-22 ******** ID: 22 Health: 0 Eccentricity: 0.01212882996 Time of Applicability(s): 61440 Orbital Inclination(rad): 0.9573801797 Rate of Right Ascen(r/s): -8.080336578e-09 SQRT(A) (m 1/2): 5153.561523 Right Ascen at Week(rad): 1.30980163 Argument of Perigee(rad): -0.9944243931 Mean Anom(rad): 1.890668024 Af0(s): -3.617636719e-05 Af1(s/s): 3.637979e-12 week: 358 ******** Week 358 almanac for PRN-23 ******** ID: 23 Health: 0 Eccentricity: 0.006017208099 Time of Applicability(s): 61440 Orbital Inclination(rad): 0.9874306237 Rate of Right Ascen(r/s): -8.023191341e-09 SQRT(A) (m 1/2): 5153.652832 Right Ascen at Week(rad): -1.942443246 Argument of Perigee(rad): -2.740792237 Mean Anom(rad): -1.865206789 Af0(s): 0.0004846125854 Af1(s/s): 3.637979e-12 week: 358 ******** Week 358 almanac for PRN-24 ******** ID: 24 Health: 0 Eccentricity: 0.01786422729 Time of Applicability(s): 61440 Orbital Inclination(rad): 0.9353591665 Rate of Right Ascen(r/s): -7.886042771e-09 SQRT(A) (m 1/2): 5153.603027 Right Ascen at Week(rad): 0.06356058385 Argument of Perigee(rad): 1.133405075 Mean Anom(rad): -0.5289237664 Af0(s): -9.496296387e-05 Af1(s/s): 1.455192e-11 week: 358 ******** Week 358 almanac for PRN-25 ******** ID: 25 Health: 0 Eccentricity: 0.01295614243 Time of Applicability(s): 61440 Orbital Inclination(rad): 0.9471995807 Rate of Right Ascen(r/s): -8.137481816e-09 SQRT(A) (m 1/2): 5153.664551 Right Ascen at Week(rad): 1.195746264 Argument of Perigee(rad): 1.155877369 Mean Anom(rad): -2.296795429 Af0(s): 0.0003504585571 Af1(s/s): -3.637979e-12 week: 358 ******** Week 358 almanac for PRN-26 ******** ID: 26 Health: 0 Eccentricity: 0.01099872589 Time of Applicability(s): 61440 Orbital Inclination(rad): 0.9280128366 Rate of Right Ascen(r/s): -8.343204671e-09 SQRT(A) (m 1/2): 5153.639648 Right Ascen at Week(rad): 1.121465791 Argument of Perigee(rad): 0.708336976 Mean Anom(rad): -3.119927049 Af0(s): -0.0002585102905 Af1(s/s): -7.275958e-12 week: 358 ******** Week 358 almanac for PRN-27 ******** ID: 27 Health: 0 Eccentricity: 0.01431322098 Time of Applicability(s): 61440 Orbital Inclination(rad): 0.9527183163 Rate of Right Ascen(r/s): -7.897471818e-09 SQRT(A) (m 1/2): 5153.609863 Right Ascen at Week(rad): 2.251551984 Argument of Perigee(rad): 0.8755079253 Mean Anom(rad): 1.423278383 Af0(s): -3.391534424e-05 Af1(s/s): -1.091394e-11 week: 358 ******** Week 358 almanac for PRN-28 ******** ID: 28 Health: 0 Eccentricity: 0.0004000663757 Time of Applicability(s): 61440 Orbital Inclination(rad): 0.962293712 Rate of Right Ascen(r/s): -7.611745631e-09 SQRT(A) (m 1/2): 5153.742188 Right Ascen at Week(rad): 0.14583828 Argument of Perigee(rad): 0.1294809365 Mean Anom(rad): -1.293127828 Af0(s): -0.0004702927734 Af1(s/s): 7.275958e-12 week: 358 ******** Week 358 almanac for PRN-29 ******** ID: 29 Health: 0 Eccentricity: 0.003319263458 Time of Applicability(s): 61440 Orbital Inclination(rad): 0.9620240669 Rate of Right Ascen(r/s): -7.760323248e-09 SQRT(A) (m 1/2): 5153.71582 Right Ascen at Week(rad): 2.340792515 Argument of Perigee(rad): 2.742189523 Mean Anom(rad): 1.292715871 Af0(s): -0.0002961940063 Af1(s/s): 7.275958e-12 week: 358 ******** Week 358 almanac for PRN-30 ******** ID: 30 Health: 0 Eccentricity: 0.008003234863 Time of Applicability(s): 61440 Orbital Inclination(rad): 0.9365935416 Rate of Right Ascen(r/s): -7.828897533e-09 SQRT(A) (m 1/2): 5153.71875 Right Ascen at Week(rad): 0.1629611158 Argument of Perigee(rad): -2.329924321 Mean Anom(rad): -1.657065894 Af0(s): 9.64703125e-05 Af1(s/s): 1.455192e-11 week: 358 ******** Week 358 almanac for PRN-31 ******** ID: 31 Health: 0 Eccentricity: 0.01081752777 Time of Applicability(s): 61440 Orbital Inclination(rad): 0.9550971849 Rate of Right Ascen(r/s): -7.691748963e-09 SQRT(A) (m 1/2): 5153.727051 Right Ascen at Week(rad): 0.1958862757 Argument of Perigee(rad): 0.9373169398 Mean Anom(rad): -2.603730529 Af0(s): -0.0001318930054 Af1(s/s): 3.637979e-12 week: 358 ******** Week 358 almanac for PRN-32 ******** ID: 32 Health: 0 Eccentricity: 0.009312152862 Time of Applicability(s): 61440 Orbital Inclination(rad): 0.9677105816 Rate of Right Ascen(r/s): -7.931758961e-09 SQRT(A) (m 1/2): 5153.681152 Right Ascen at Week(rad): -0.8839099905 Argument of Perigee(rad): -2.008683802 Mean Anom(rad): 2.011990324 Af0(s): -7.235273437e-05 Af1(s/s): 1.818989e-11 week: 358